Cahokia, IL

3:26 AM CDT on June 26, 2017 (GMT -0500)
Saint Louis Downtown

Weather History for KCPS - August, 2014

Change the Weather History Date:

Saturday, August 16, 2014

  Actual Average Record
Temperature  
Mean Temperature 76 °F -  
Max Temperature 82 °F 88 °F 99 °F (2003)
Min Temperature 71 °F 68 °F 48 °F (2004)
Cooling Degree Days 12    
Growing Degree Days 26 (Base 50)    
Moisture  
Dew Point 70 °F    
Average Humidity 86    
Maximum Humidity 94    
Minimum Humidity 69    
Precipitation  
Precipitation 0.62 in - - ()
Sea Level Pressure  
Sea Level Pressure 29.90 in    
Wind  
Wind Speed 5 mph (SSE)    
Max Wind Speed 12 mph    
Max Gust Speed -    
Visibility 8 miles    
Events Rain , Thunderstorm    
Averages and records for this station are not official NWS values.
T = Trace of Precipitation, MM = Missing Value Source: NWS Daily Summary

Daily Weather History Graph

Daily Weather History Graph

Search for Another Location

Airport or City:

Trip Planner

Search our weather history database for the weather conditions in past years. The results will help you decide how hot, cold, wet, or windy it might be!

Date:

Astronomy

Aug. 16, 2014 Rise Set
Actual Time 6:15 AM CDT 7:53 PM CDT
Civil Twilight 5:47 AM CDT 8:21 PM CDT
Nautical Twilight 5:13 AM CDT 8:55 PM CDT
Astronomical Twilight 4:37 AM CDT 9:31 PM CDT
Moon 11:42 PM CDT (8/16) 12:56 PM CDT (8/16)
Length of Visible Light 14h 34m
Length of Day
13h 37m
Waning Gibbous, 58% of the Moon is Illuminated
Aug 16
Waning Gibbous
Aug 17
Last Quarter
Aug 25
New
Sep 2
First Quarter
Sep 8
Full

Hourly Weather History & Observations

Time (CDT) Temp. Heat Index Dew Point Humidity Pressure Visibility Wind Dir Wind Speed Gust Speed Precip Events Conditions
12:53 AM 73.0 °F - 71.1 °F 93% 29.94 in 9.0 mi SE 3.5 mph - 0.01 in   Partly Cloudy
1:53 AM 73.0 °F - 70.0 °F 90% 29.92 in 10.0 mi South 3.5 mph - 0.00 in   Partly Cloudy
2:53 AM 73.0 °F - 69.1 °F 87% 29.91 in 10.0 mi Variable 4.6 mph - 0.00 in   Partly Cloudy
3:53 AM 73.9 °F - 68.0 °F 82% 29.92 in 10.0 mi SSW 8.1 mph - N/A   Scattered Clouds
4:53 AM 73.9 °F - 68.0 °F 82% 29.92 in 10.0 mi SSW 6.9 mph - N/A   Partly Cloudy
5:53 AM 72.0 °F - 69.1 °F 91% 29.92 in 10.0 mi SW 8.1 mph - 0.01 in   Partly Cloudy
6:53 AM 72.0 °F - 69.1 °F 91% 29.93 in 6.0 mi Variable 5.8 mph - 0.04 in Rain Rain
7:48 AM 71.6 °F - 69.8 °F 94% 29.96 in 2.5 mi Calm Calm - 0.08 in Rain Light Rain
7:53 AM 71.1 °F - 69.1 °F 93% 29.96 in 2.5 mi Calm Calm - 0.08 in Rain Rain
8:09 AM 71.1 °F - 69.1 °F 93% 29.98 in 1.5 mi WSW 4.6 mph - 0.07 in Rain Heavy Rain
8:25 AM 71.1 °F - 69.1 °F 93% 29.98 in 3.0 mi South 3.5 mph - 0.11 in Rain Light Rain
8:54 AM 71.1 °F - 69.1 °F 93% 29.96 in - Variable 5.8 mph - 0.13 in Rain Light Rain
9:53 AM 72.0 °F - 69.1 °F 91% 29.95 in 7.0 mi South 4.6 mph - 0.04 in Rain Light Rain
10:53 AM 72.0 °F - 69.1 °F 91% 29.95 in 4.0 mi Calm Calm - 0.04 in Rain Light Rain
11:49 AM 71.6 °F - 69.8 °F 94% 29.96 in 2.5 mi SSE 5.8 mph - 0.06 in Rain Rain
11:53 AM 72.0 °F - 69.1 °F 91% 29.95 in 3.0 mi SSE 4.6 mph - 0.07 in Rain Light Rain
12:53 PM 73.0 °F - 66.9 °F 81% 29.91 in 10.0 mi SSE 9.2 mph - 0.03 in   Mostly Cloudy
1:53 PM 75.0 °F - 66.0 °F 73% 29.89 in 4.0 mi SSE 6.9 mph - N/A   Haze
2:53 PM 78.1 °F - 69.1 °F 74% 29.87 in 10.0 mi SSE 11.5 mph - N/A   Mostly Cloudy
3:53 PM 81.0 °F 84.4 °F 70.0 °F 69% 29.86 in 10.0 mi SSE 6.9 mph - N/A   Partly Cloudy
4:53 PM 82.0 °F 87.4 °F 73.0 °F 74% 29.85 in 10.0 mi SSE 6.9 mph - N/A   Mostly Cloudy
5:53 PM 80.1 °F 83.6 °F 71.1 °F 74% 29.85 in 10.0 mi SSE 8.1 mph - N/A   Overcast
6:53 PM 79.0 °F - 70.0 °F 74% 29.82 in 10.0 mi SSE 9.2 mph - N/A   Partly Cloudy
7:53 PM 78.1 °F - 69.1 °F 74% 29.83 in 10.0 mi SSE 11.5 mph - N/A   Mostly Cloudy
8:53 PM 77.0 °F - 70.0 °F 79% 29.84 in 10.0 mi SSE 8.1 mph - 0.00 in Rain Light Rain
9:35 PM 75.0 °F - 70.0 °F 84% 29.85 in 10.0 mi SSE 9.2 mph - 0.01 in Rain , Thunderstorm Light Rain
9:53 PM 75.0 °F - 70.0 °F 84% 29.85 in 9.0 mi SSE 4.6 mph - 0.03 in Rain , Thunderstorm Light Thunderstorms and Rain
10:36 PM 73.0 °F - 71.1 °F 93% 29.85 in 10.0 mi SSE 8.1 mph - 0.11 in Rain , Thunderstorm Light Rain
10:53 PM 73.0 °F - 71.1 °F 93% 29.85 in 10.0 mi SE 8.1 mph - 0.11 in Rain Light Rain
11:16 PM 73.0 °F - 71.1 °F 93% 29.86 in 5.0 mi Calm Calm - 0.03 in Rain , Thunderstorm Light Rain
11:25 PM 73.0 °F - 71.1 °F 93% 29.86 in 6.0 mi Calm Calm - 0.03 in Rain Light Rain
11:42 PM 73.0 °F - 71.1 °F 93% 29.85 in 10.0 mi South 5.8 mph - 0.03 in Rain , Thunderstorm Light Rain
11:53 PM 73.0 °F - 71.1 °F 93% 29.83 in 10.0 mi South 4.6 mph - 0.03 in Thunderstorm Thunderstorm